QPF
0.00 0.00 0.00 0.00 0.00 0.00 0.00 0.00 0.00 0.00 0.00 0.00 0.00 0.00 0.00 0.00 0.01 0.01 0.00 0.01 0.01 0.01 0.01 0.01 0.00 0.00 0.00 0.00 0.00 0.00 0.00 0.01 0.01 0.01 0.01 0.01 0.01 0.01 0.01 0.00 0.00 0.00 0.01
0.00 0.00 0.00 0.00 0.00 0.00 0.00 0.00 0.00 0.00 0.00 0.00 0.00 0.00 0.00 0.00 0.00 0.00 0.00 0.00 0.00 0.01 0.01 0.00 0.00 0.00 0.00 0.00 0.00 0.00 0.00 0.00 0.00 0.00 0.00 0.00 0.01 0.01 0.01 0.01 0.01 0.01 0.01
0.00 0.00 0.00 0.00 0.00 0.00 0.00 0.00 0.00 0.00 0.00 0.00 0.00 0.00 0.00 0.00 0.00 0.00 0.00 0.00 0.00 0.00 0.00 0.00 0.00 0.00 0.00 0.00 0.00 0.00 0.00 0.00 0.00 0.00 0.00 0.00 0.00 0.01 0.01 0.01 0.01 0.01 0.01
0.00 0.00 0.00 0.00 0.00 0.00 0.00 0.00 0.00 0.00 0.00 0.00 0.00 0.00 0.00 0.00 0.00 0.00 0.00 0.00 0.00 0.00 0.00 0.00 0.00 0.00 0.00 0.00 0.00 0.00 0.00 0.00 0.00 0.00 0.00 0.00 0.00 0.01 0.01 0.01 0.01 0.01 0.01
0.00 0.00 0.00 0.00 0.00 0.00 0.00 0.00 0.00 0.00 0.00 0.00 0.00 0.00 0.00 0.00 0.00 0.00 0.00 0.00 0.00 0.00 0.00 0.00 0.00 0.00 0.00 0.00 0.00 0.00 0.00 0.00 0.00 0.00 0.00 0.00 0.00 0.01 0.01 0.01 0.01 0.01 0.01
0.00 0.00 0.00 0.00 0.01 0.01 0.00 0.00 0.00 0.00 0.00 0.00 0.00 0.00 0.00 0.00 0.00 0.00 0.00 0.00 0.00 0.00 0.00 0.00 0.00 0.00 0.00 0.00 0.00 0.00 0.00 0.00 0.00 0.00 0.00 0.00 0.00 0.01 0.01 0.01 0.01 0.01 0.01
0.00 0.00 0.00 0.00 0.01 0.01 0.01 0.00 0.00 0.00 0.00 0.00 0.00 0.00 0.00 0.00 0.00 0.00 0.00 0.00 0.00 0.00 0.00 0.00 0.00 0.00 0.00 0.00 0.00 0.00 0.00 0.00 0.00 0.00 0.00 0.00 0.00 0.01 0.01 0.01 0.01 0.01 0.01
0.00 0.00 0.00 0.00 0.01 0.01 0.01 0.01 0.01 0.00 0.00 0.00 0.00 0.00 0.00 0.00 0.00 0.00 0.00 0.00 0.00 0.00 0.00 0.00 0.00 0.00 0.00 0.00 0.00 0.00 0.00 0.00 0.00 0.00 0.00 0.00 0.00 0.00 0.00 0.00 0.00 0.00 0.00
0.00 0.00 0.00 0.00 0.01 0.01 0.01 0.01 0.01 0.00 0.00 0.00 0.00 0.00 0.00 0.00 0.00 0.00 0.00 0.00 0.00 0.00 0.00 0.00 0.00 0.00 0.00 0.00 0.00 0.00 0.00 0.00 0.00 0.00 0.00 0.00 0.00 0.00 0.00 0.00 0.00 0.00 0.00
0.00 0.00 0.00 0.00 0.00 0.00 0.01 0.01 0.01 0.01 0.00 0.00 0.00 0.00 0.00 0.00 0.00 0.00 0.00 0.00 0.00 0.00 0.00 0.00 0.00 0.00 0.00 0.00 0.00 0.00 0.00 0.00 0.00 0.00 0.00 0.00 0.00 0.00 0.00 0.00 0.00 0.00 0.00
0.00 0.00 0.00 0.00 0.00 0.00 0.00 0.00 0.01 0.01 0.01 0.00 0.00 0.00 0.00 0.00 0.00 0.00 0.00 0.00 0.00 0.00 0.00 0.00 0.00 0.00 0.00 0.00 0.00 0.00 0.00 0.00 0.00 0.00 0.00 0.00 0.00 0.00 0.00 0.00 0.00 0.00 0.00
0.00 0.00 0.00 0.00 0.00 0.00 0.00 0.00 0.00 0.00 0.00 0.00 0.00 0.00 0.00 0.00 0.00 0.00 0.00 0.00 0.00 0.00 0.00 0.00 0.00 0.00 0.00 0.00 0.00 0.00 0.00 0.00 0.00 0.00 0.00 0.00 0.00 0.00 0.00 0.00 0.00 0.00 0.00
0.00 0.00 0.00 0.00 0.00 0.00 0.00 0.00 0.00 0.00 0.00 0.00 0.00 0.00 0.00 0.00 0.00 0.00 0.00 0.00 0.00 0.00 0.00 0.00 0.00 0.00 0.00 0.00 0.00 0.00 0.00 0.00 0.00 0.00 0.00 0.00 0.00 0.00 0.00 0.00 0.00 0.00 0.00
0.00 0.00 0.00 0.00 0.00 0.00 0.00 0.00 0.00 0.00 0.00 0.00 0.00 0.00 0.00 0.00 0.00 0.00 0.00 0.00 0.00 0.00 0.00 0.00 0.00 0.00 0.00 0.00 0.00 0.00 0.00 0.00 0.00 0.00 0.00 0.00 0.00 0.00 0.00 0.00 0.00 0.00 0.00
0.00 0.00 0.00 0.00 0.00 0.00 0.00 0.00 0.00 0.00 0.00 0.00 0.00 0.00 0.00 0.00 0.00 0.00 0.00 0.00 0.00 0.00 0.00 0.00 0.00 0.00 0.00 0.00 0.00 0.00 0.00 0.00 0.00 0.00 0.00 0.00 0.00 0.00 0.00 0.00 0.00 0.00 0.00
0.00 0.00 0.00 0.00 0.00 0.00 0.00 0.00 0.00 0.00 0.00 0.00 0.00 0.00 0.00 0.00 0.00 0.00 0.00 0.00 0.00 0.00 0.00 0.00 0.00 0.00 0.00 0.00 0.00 0.00 0.00 0.00 0.00 0.00 0.00 0.00 0.00 0.00 0.00 0.00 0.00 0.00 0.00
0.00 0.00 0.00 0.00 0.00 0.00 0.00 0.00 0.00 0.00 0.00 0.00 0.00 0.00 0.00 0.00 0.00 0.00 0.00 0.00 0.00 0.00 0.00 0.00 0.00 0.00 0.00 0.00 0.00 0.00 0.00 0.00 0.00 0.00 0.00 0.00 0.00 0.00 0.00 0.00 0.00 0.00 0.00
0.00 0.00 0.00 0.00 0.00 0.00 0.00 0.00 0.00 0.00 0.00 0.00 0.00 0.00 0.00 0.00 0.00 0.00 0.00 0.00 0.00 0.00 0.00 0.00 0.00 0.00 0.00 0.00 0.00 0.00 0.00 0.00 0.00 0.00 0.00 0.00 0.00 0.00 0.00 0.00 0.00 0.00 0.00
0.00 0.00 0.00 0.00 0.00 0.00 0.00 0.00 0.00 0.00 0.00 0.00 0.00 0.00 0.00 0.00 0.00 0.00 0.00 0.00 0.00 0.00 0.00 0.00 0.00 0.00 0.00 0.00 0.00 0.00 0.00 0.00 0.00 0.00 0.00 0.00 0.00 0.00 0.00 0.00 0.00 0.00 0.00
0.00 0.00 0.00 0.00 0.00 0.00 0.00 0.00 0.00 0.00 0.00 0.00 0.00 0.00 0.00 0.00 0.00 0.00 0.00 0.00 0.00 0.00 0.00 0.00 0.00 0.00 0.00 0.00 0.00 0.00 0.00 0.00 0.00 0.00 0.00 0.00 0.00 0.00 0.00 0.00 0.00 0.00 0.00
0.00 0.00 0.00 0.00 0.00 0.00 0.00 0.00 0.00 0.00 0.00 0.00 0.00 0.00 0.00 0.00 0.00 0.00 0.00 0.00 0.00 0.00 0.00 0.00 0.00 0.00 0.00 0.00 0.00 0.00 0.00 0.00 0.00 0.00 0.00 0.00 0.00 0.00 0.00 0.00 0.00 0.00 0.00
0.00 0.00 0.00 0.00 0.00 0.00 0.00 0.00 0.00 0.00 0.00 0.00 0.00 0.00 0.00 0.00 0.00 0.00 0.00 0.00 0.00 0.00 0.00 0.00 0.00 0.00 0.00 0.00 0.00 0.00 0.00 0.00 0.00 0.00 0.00 0.00 0.00 0.00 0.00 0.00 0.00 0.00 0.00
0.00 0.00 0.00 0.00 0.00 0.00 0.00 0.00 0.00 0.00 0.00 0.00 0.00 0.00 0.00 0.00 0.00 0.00 0.00 0.00 0.00 0.00 0.00 0.00 0.00 0.00 0.00 0.00 0.00 0.00 0.00 0.00 0.00 0.00 0.00 0.00 0.00 0.00 0.00 0.00 0.00 0.00 0.00
0.00 0.00 0.00 0.00 0.00 0.00 0.00 0.00 0.00 0.00 0.00 0.00 0.00 0.00 0.00 0.00 0.00 0.00 0.00 0.00 0.00 0.00 0.00 0.00 0.00 0.00 0.00 0.00 0.00 0.00 0.00 0.00 0.00 0.00 0.00 0.00 0.00 0.00 0.00 0.00 0.00 0.00 0.00
0.00 0.00 0.00 0.00 0.00 0.00 0.00 0.00 0.00 0.00 0.00 0.00 0.00 0.00 0.00 0.00 0.00 0.00 0.00 0.00 0.00 0.00 0.00 0.00 0.00 0.00 0.00 0.00 0.00 0.00 0.00 0.00 0.00 0.00 0.00 0.00 0.00 0.00 0.00 0.00 0.00 0.00 0.00
0.00 0.00 0.00 0.00 0.00 0.00 0.00 0.00 0.00 0.00 0.00 0.00 0.00 0.00 0.00 0.00 0.00 0.00 0.00 0.00 0.00 0.00 0.00 0.00 0.00 0.00 0.00 0.00 0.00 0.00 0.00 0.00 0.00 0.00 0.00 0.00 0.00 0.00 0.00 0.00 0.00 0.00 0.00
MSLP
1018.02 1017.86 1017.86 1018.04 1018.37 1018.79 1019.25 1019.69 1020.06 1020.34 1020.54 1020.69 1020.84 1021.01 1021.23 1021.50 1021.81 1022.12 1022.40 1022.63 1022.77 1022.85 1022.86 1022.84 1022.81 1022.80 1022.81 1022.85 1022.90 1022.94 1022.96 1022.95 1022.90 1022.81 1022.69 1022.56 1022.44 1022.33 1022.24 1022.17 1022.12 1022.09 1022.05
1017.37 1017.26 1017.33 1017.59 1018.00 1018.52 1019.06 1019.58 1020.01 1020.35 1020.60 1020.79 1020.98 1021.19 1021.45 1021.77 1022.12 1022.47 1022.79 1023.05 1023.22 1023.32 1023.35 1023.34 1023.32 1023.32 1023.33 1023.37 1023.42 1023.46 1023.49 1023.48 1023.44 1023.36 1023.25 1023.12 1022.99 1022.87 1022.77 1022.68 1022.62 1022.58 1022.55
1016.73 1016.70 1016.85 1017.20 1017.71 1018.32 1018.95 1019.53 1020.03 1020.42 1020.71 1020.95 1021.16 1021.40 1021.69 1022.03 1022.40 1022.76 1023.09 1023.36 1023.55 1023.66 1023.71 1023.72 1023.72 1023.73 1023.76 1023.81 1023.87 1023.93 1023.97 1023.98 1023.95 1023.89 1023.80 1023.68 1023.54 1023.41 1023.29 1023.19 1023.11 1023.06 1023.03
1016.23 1016.29 1016.53 1016.97 1017.56 1018.23 1018.92 1019.56 1020.10 1020.53 1020.85 1021.11 1021.34 1021.59 1021.89 1022.22 1022.58 1022.94 1023.26 1023.53 1023.72 1023.84 1023.91 1023.95 1023.98 1024.02 1024.08 1024.15 1024.24 1024.32 1024.39 1024.43 1024.44 1024.40 1024.33 1024.21 1024.08 1023.94 1023.80 1023.67 1023.58 1023.52 1023.48
1015.96 1016.11 1016.43 1016.93 1017.56 1018.27 1018.99 1019.64 1020.19 1020.62 1020.95 1021.22 1021.46 1021.71 1022.00 1022.32 1022.66 1023.00 1023.30 1023.55 1023.74 1023.87 1023.97 1024.04 1024.11 1024.19 1024.29 1024.41 1024.54 1024.66 1024.77 1024.85 1024.89 1024.88 1024.82 1024.72 1024.58 1024.42 1024.26 1024.12 1024.00 1023.93 1023.90
1015.96 1016.17 1016.54 1017.07 1017.71 1018.40 1019.09 1019.71 1020.23 1020.64 1020.97 1021.23 1021.48 1021.74 1022.03 1022.34 1022.66 1022.97 1023.25 1023.48 1023.66 1023.81 1023.93 1024.04 1024.15 1024.29 1024.45 1024.61 1024.79 1024.96 1025.11 1025.22 1025.29 1025.31 1025.27 1025.17 1025.02 1024.85 1024.67 1024.50 1024.38 1024.30 1024.27
1016.19 1016.44 1016.81 1017.32 1017.92 1018.55 1019.17 1019.72 1020.18 1020.56 1020.87 1021.14 1021.41 1021.68 1021.98 1022.29 1022.61 1022.90 1023.16 1023.38 1023.56 1023.72 1023.86 1024.01 1024.18 1024.37 1024.58 1024.80 1025.02 1025.23 1025.42 1025.56 1025.66 1025.69 1025.66 1025.56 1025.41 1025.22 1025.02 1024.84 1024.70 1024.62 1024.60
1016.55 1016.80 1017.15 1017.61 1018.13 1018.66 1019.17 1019.64 1020.03 1020.37 1020.67 1020.96 1021.26 1021.58 1021.91 1022.26 1022.58 1022.88 1023.13 1023.34 1023.52 1023.68 1023.85 1024.03 1024.24 1024.48 1024.73 1025.00 1025.25 1025.49 1025.70 1025.87 1025.98 1026.02 1025.99 1025.89 1025.72 1025.52 1025.30 1025.11 1024.96 1024.89 1024.88
1016.90 1017.13 1017.44 1017.83 1018.25 1018.68 1019.09 1019.46 1019.80 1020.10 1020.41 1020.73 1021.09 1021.48 1021.88 1022.27 1022.63 1022.94 1023.19 1023.40 1023.57 1023.74 1023.92 1024.13 1024.37 1024.63 1024.92 1025.21 1025.49 1025.74 1025.96 1026.13 1026.24 1026.28 1026.25 1026.14 1025.97 1025.76 1025.53 1025.33 1025.18 1025.10 1025.11
1017.10 1017.31 1017.59 1017.91 1018.26 1018.61 1018.93 1019.23 1019.52 1019.82 1020.15 1020.53 1020.96 1021.43 1021.90 1022.35 1022.76 1023.09 1023.35 1023.56 1023.73 1023.89 1024.08 1024.29 1024.54 1024.83 1025.12 1025.42 1025.70 1025.96 1026.17 1026.34 1026.44 1026.48 1026.44 1026.33 1026.16 1025.94 1025.71 1025.49 1025.33 1025.25 1025.26
1017.08 1017.28 1017.54 1017.84 1018.15 1018.45 1018.73 1019.00 1019.27 1019.59 1019.96 1020.40 1020.90 1021.44 1021.99 1022.50 1022.94 1023.30 1023.57 1023.78 1023.95 1024.11 1024.29 1024.50 1024.75 1025.03 1025.33 1025.62 1025.89 1026.13 1026.33 1026.48 1026.57 1026.60 1026.56 1026.45 1026.28 1026.06 1025.82 1025.60 1025.42 1025.33 1025.32
1016.80 1017.03 1017.32 1017.64 1017.95 1018.25 1018.53 1018.80 1019.09 1019.43 1019.85 1020.34 1020.91 1021.51 1022.11 1022.66 1023.14 1023.51 1023.79 1024.00 1024.16 1024.32 1024.49 1024.70 1024.95 1025.22 1025.50 1025.77 1026.02 1026.24 1026.41 1026.54 1026.62 1026.64 1026.60 1026.49 1026.32 1026.10 1025.86 1025.63 1025.44 1025.32 1025.28
1016.33 1016.62 1016.96 1017.34 1017.71 1018.05 1018.37 1018.68 1019.00 1019.37 1019.82 1020.35 1020.94 1021.58 1022.20 1022.78 1023.27 1023.65 1023.94 1024.15 1024.32 1024.48 1024.65 1024.86 1025.10 1025.36 1025.62 1025.87 1026.09 1026.28 1026.42 1026.52 1026.58 1026.58 1026.54 1026.43 1026.27 1026.06 1025.82 1025.58 1025.37 1025.21 1025.13
1015.76 1016.12 1016.55 1017.01 1017.46 1017.88 1018.26 1018.61 1018.97 1019.37 1019.84 1020.37 1020.97 1021.59 1022.21 1022.78 1023.27 1023.66 1023.96 1024.18 1024.37 1024.54 1024.73 1024.94 1025.17 1025.42 1025.67 1025.89 1026.08 1026.23 1026.33 1026.40 1026.43 1026.42 1026.37 1026.26 1026.11 1025.91 1025.68 1025.43 1025.20 1025.00 1024.87
1015.21 1015.64 1016.15 1016.70 1017.24 1017.73 1018.18 1018.58 1018.98 1019.39 1019.84 1020.36 1020.92 1021.51 1022.09 1022.64 1023.11 1023.50 1023.82 1024.07 1024.28 1024.49 1024.70 1024.93 1025.17 1025.41 1025.63 1025.83 1025.97 1026.08 1026.14 1026.17 1026.16 1026.13 1026.06 1025.96 1025.81 1025.63 1025.41 1025.16 1024.92 1024.70 1024.53
1014.79 1015.26 1015.83 1016.44 1017.04 1017.60 1018.09 1018.54 1018.95 1019.36 1019.79 1020.26 1020.76 1021.29 1021.82 1022.33 1022.78 1023.18 1023.51 1023.80 1024.06 1024.31 1024.56 1024.81 1025.07 1025.30 1025.50 1025.66 1025.77 1025.82 1025.83 1025.81 1025.76 1025.69 1025.60 1025.49 1025.35 1025.18 1024.99 1024.76 1024.53 1024.30 1024.11
1014.56 1015.04 1015.62 1016.24 1016.87 1017.45 1017.98 1018.44 1018.86 1019.25 1019.64 1020.05 1020.49 1020.95 1021.42 1021.88 1022.31 1022.71 1023.08 1023.41 1023.72 1024.02 1024.31 1024.59 1024.85 1025.08 1025.26 1025.38 1025.44 1025.44 1025.39 1025.31 1025.21 1025.10 1024.98 1024.86 1024.73 1024.58 1024.41 1024.22 1024.02 1023.82 1023.63
1014.54 1014.97 1015.51 1016.10 1016.70 1017.28 1017.81 1018.27 1018.69 1019.05 1019.41 1019.76 1020.12 1020.51 1020.91 1021.33 1021.74 1022.14 1022.53 1022.91 1023.26 1023.61 1023.94 1024.24 1024.51 1024.73 1024.88 1024.97 1024.98 1024.93 1024.82 1024.68 1024.52 1024.36 1024.20 1024.06 1023.93 1023.81 1023.68 1023.55 1023.40 1023.25 1023.09
1014.71 1015.05 1015.49 1016.00 1016.55 1017.09 1017.60 1018.05 1018.45 1018.80 1019.11 1019.41 1019.71 1020.02 1020.36 1020.72 1021.10 1021.49 1021.89 1022.29 1022.69 1023.07 1023.42 1023.73 1024.00 1024.21 1024.34 1024.39 1024.37 1024.27 1024.11 1023.92 1023.70 1023.49 1023.30 1023.13 1023.00 1022.90 1022.81 1022.74 1022.67 1022.58 1022.49
1015.01 1015.23 1015.55 1015.96 1016.42 1016.90 1017.38 1017.81 1018.20 1018.53 1018.81 1019.05 1019.29 1019.53 1019.79 1020.09 1020.42 1020.78 1021.17 1021.57 1021.97 1022.37 1022.73 1023.04 1023.30 1023.50 1023.61 1023.65 1023.59 1023.47 1023.28 1023.05 1022.79 1022.53 1022.30 1022.11 1021.97 1021.88 1021.84 1021.82 1021.82 1021.82 1021.80
1015.39 1015.49 1015.68 1015.97 1016.34 1016.76 1017.19 1017.60 1017.97 1018.28 1018.53 1018.72 1018.88 1019.04 1019.22 1019.44 1019.69 1020.00 1020.35 1020.73 1021.11 1021.49 1021.84 1022.15 1022.40 1022.58 1022.69 1022.73 1022.67 1022.54 1022.35 1022.10 1021.82 1021.53 1021.27 1021.05 1020.89 1020.81 1020.78 1020.82 1020.89 1020.96 1021.01
1015.83 1015.81 1015.89 1016.07 1016.34 1016.69 1017.07 1017.46 1017.80 1018.08 1018.29 1018.42 1018.51 1018.57 1018.65 1018.76 1018.92 1019.15 1019.43 1019.75 1020.09 1020.43 1020.75 1021.05 1021.29 1021.48 1021.60 1021.65 1021.62 1021.52 1021.35 1021.11 1020.83 1020.54 1020.25 1020.00 1019.82 1019.72 1019.70 1019.76 1019.87 1020.00 1020.12
1016.30 1016.20 1016.17 1016.25 1016.44 1016.72 1017.05 1017.39 1017.70 1017.94 1018.09 1018.14 1018.13 1018.09 1018.05 1018.04 1018.09 1018.21 1018.39 1018.64 1018.92 1019.21 1019.50 1019.77 1020.01 1020.20 1020.35 1020.44 1020.46 1020.42 1020.30 1020.10 1019.85 1019.56 1019.27 1019.00 1018.79 1018.65 1018.62 1018.67 1018.79 1018.95 1019.11
1016.81 1016.65 1016.54 1016.53 1016.64 1016.84 1017.11 1017.39 1017.64 1017.81 1017.88 1017.85 1017.73 1017.57 1017.40 1017.26 1017.19 1017.19 1017.28 1017.43 1017.64 1017.88 1018.12 1018.37 1018.60 1018.81 1018.99 1019.13 1019.22 1019.25 1019.21 1019.08 1018.88 1018.62 1018.33 1018.04 1017.80 1017.63 1017.56 1017.57 1017.68 1017.83 1018.01
1017.36 1017.14 1016.97 1016.88 1016.90 1017.02 1017.21 1017.41 1017.58 1017.67 1017.64 1017.50 1017.27 1016.99 1016.69 1016.43 1016.24 1016.13 1016.12 1016.19 1016.32 1016.50 1016.70 1016.92 1017.13 1017.35 1017.56 1017.76 1017.92 1018.03 1018.06 1018.02 1017.88 1017.67 1017.40 1017.12 1016.85 1016.64 1016.51 1016.48 1016.54 1016.67 1016.83
1017.92 1017.66 1017.42 1017.25 1017.18 1017.21 1017.30 1017.40 1017.47 1017.46 1017.33 1017.08 1016.74 1016.34 1015.94 1015.57 1015.28 1015.08 1014.99 1014.98 1015.04 1015.15 1015.30 1015.47 1015.66 1015.87 1016.10 1016.33 1016.54 1016.72 1016.84 1016.88 1016.82 1016.67 1016.44 1016.17 1015.89 1015.65 1015.48 1015.40 1015.40 1015.49 1015.62
Thickness
5709 5709 5707 5704 5700 5696 5693 5691 5689 5687 5684 5683 5681 5679 5678 5677 5676 5675 5675 5674 5674 5674 5674 5674 5674 5674 5675 5675 5675 5676 5677 5678 5678 5679 5681 5683 5684 5685 5685 5686 5687 5689 5690
5718 5711 5708 5704 5699 5695 5692 5690 5687 5684 5682 5680 5678 5676 5674 5673 5672 5671 5670 5669 5669 5669 5669 5668 5668 5668 5669 5669 5669 5669 5670 5670 5671 5672 5673 5675 5677 5678 5679 5680 5681 5682 5683
5716 5711 5708 5703 5698 5694 5691 5688 5685 5682 5679 5677 5675 5673 5671 5669 5668 5667 5666 5665 5664 5664 5663 5663 5663 5663 5663 5663 5663 5663 5663 5663 5663 5664 5666 5668 5670 5672 5672 5673 5674 5675 5676
5715 5710 5707 5702 5697 5693 5689 5686 5682 5679 5677 5674 5672 5669 5667 5666 5664 5662 5661 5660 5659 5659 5658 5657 5657 5657 5657 5657 5657 5656 5656 5656 5656 5657 5659 5660 5662 5664 5665 5666 5666 5667 5669
5712 5708 5705 5700 5695 5691 5687 5684 5680 5677 5674 5671 5668 5666 5664 5662 5660 5658 5657 5656 5654 5654 5653 5652 5652 5651 5651 5651 5651 5650 5649 5649 5649 5651 5652 5653 5655 5657 5657 5658 5659 5660 5661
5709 5705 5702 5698 5693 5689 5685 5681 5678 5674 5671 5668 5666 5663 5661 5659 5657 5655 5653 5651 5650 5649 5648 5647 5647 5646 5646 5645 5645 5644 5643 5642 5643 5644 5645 5646 5648 5649 5650 5650 5651 5652 5653
5706 5702 5699 5696 5691 5687 5683 5679 5676 5672 5669 5666 5663 5660 5658 5655 5653 5651 5649 5647 5645 5644 5643 5642 5641 5641 5640 5640 5639 5638 5637 5636 5636 5637 5638 5639 5640 5642 5642 5643 5643 5644 5645
5703 5699 5696 5693 5689 5685 5681 5677 5673 5670 5666 5663 5660 5657 5655 5652 5650 5647 5645 5643 5641 5640 5639 5637 5636 5635 5634 5634 5633 5632 5631 5630 5630 5630 5631 5632 5633 5635 5635 5635 5635 5636 5636
5698 5696 5693 5691 5687 5683 5679 5675 5671 5667 5664 5660 5657 5654 5652 5649 5647 5644 5641 5639 5637 5636 5634 5633 5631 5630 5629 5628 5628 5627 5625 5624 5624 5624 5624 5625 5626 5628 5628 5628 5628 5628 5628
5694 5692 5690 5688 5685 5681 5677 5673 5669 5665 5661 5658 5654 5651 5648 5646 5643 5640 5638 5636 5633 5632 5630 5628 5627 5625 5624 5623 5622 5621 5620 5618 5618 5617 5618 5618 5619 5621 5621 5620 5620 5621 5621
5690 5689 5688 5685 5682 5679 5675 5671 5667 5662 5659 5655 5651 5648 5645 5642 5639 5636 5634 5631 5629 5627 5625 5623 5622 5620 5619 5618 5617 5615 5614 5613 5611 5611 5611 5611 5612 5613 5614 5614 5613 5613 5613
5690 5688 5686 5683 5680 5676 5672 5668 5664 5660 5656 5652 5648 5644 5641 5638 5634 5631 5629 5626 5624 5622 5620 5619 5617 5615 5614 5612 5610 5609 5608 5606 5605 5605 5604 5604 5606 5607 5607 5607 5607 5606 5606
5692 5687 5684 5681 5677 5673 5670 5665 5661 5657 5653 5649 5644 5640 5637 5633 5629 5626 5623 5621 5619 5617 5615 5613 5611 5610 5608 5606 5604 5603 5601 5600 5599 5598 5598 5598 5599 5600 5601 5601 5600 5600 5599
5688 5686 5683 5678 5674 5670 5666 5662 5658 5653 5649 5645 5641 5636 5632 5628 5624 5621 5618 5615 5613 5611 5609 5607 5605 5603 5601 5599 5598 5596 5595 5594 5593 5592 5592 5591 5592 5593 5594 5594 5594 5593 5593
5686 5683 5680 5675 5671 5666 5662 5658 5654 5649 5645 5641 5637 5632 5628 5623 5619 5615 5612 5609 5607 5604 5602 5600 5598 5596 5594 5593 5591 5590 5589 5588 5587 5586 5586 5585 5584 5585 5586 5587 5587 5587 5587
5687 5682 5677 5673 5668 5663 5659 5654 5650 5645 5641 5636 5632 5628 5624 5620 5615 5611 5607 5604 5601 5599 5596 5594 5592 5590 5588 5586 5585 5584 5583 5582 5582 5581 5580 5579 5578 5578 5578 5579 5580 5580 5580
5687 5682 5676 5671 5665 5660 5656 5651 5646 5641 5636 5632 5628 5624 5620 5615 5611 5607 5603 5599 5596 5593 5591 5588 5585 5582 5580 5579 5578 5578 5577 5576 5576 5575 5574 5573 5572 5570 5570 5571 5572 5572 5572
5685 5679 5674 5669 5663 5657 5652 5647 5642 5637 5632 5628 5623 5619 5615 5611 5607 5602 5598 5595 5592 5588 5585 5581 5578 5575 5573 5572 5571 5571 5571 5570 5570 5569 5568 5567 5566 5564 5563 5563 5563 5564 5564
5681 5676 5671 5666 5661 5654 5648 5642 5637 5632 5627 5623 5619 5614 5610 5606 5602 5598 5595 5592 5587 5582 5579 5576 5573 5569 5568 5566 5565 5564 5564 5563 5563 5562 5562 5561 5560 5559 5557 5556 5555 5555 5555
5675 5671 5666 5661 5656 5649 5642 5636 5630 5626 5622 5618 5614 5610 5606 5601 5597 5593 5590 5586 5581 5576 5572 5569 5567 5564 5562 5560 5558 5559 5559 5559 5558 5557 5557 5556 5555 5554 5552 5550 5548 5547 5546
5666 5663 5659 5654 5649 5642 5635 5629 5623 5620 5617 5613 5609 5606 5601 5597 5593 5588 5585 5581 5576 5572 5569 5565 5560 5555 5553 5547 5542 5544 5550 5552 5554 5555 5553 5552 5551 5549 5547 5544 5542 5540 5538
5656 5653 5650 5647 5642 5637 5632 5625 5619 5616 5612 5609 5605 5601 5598 5594 5589 5584 5580 5577 5572 5567 5563 5559 5553 5548 5546 5539 5533 5529 5534 5544 5548 5551 5550 5548 5547 5543 5540 5537 5534 5532 5530
5646 5643 5643 5639 5635 5630 5625 5618 5613 5608 5604 5601 5599 5597 5595 5590 5585 5581 5577 5573 5568 5562 5559 5554 5548 5542 5539 5534 5528 5523 5519 5532 5534 5541 5540 5540 5538 5534 5532 5529 5526 5524 5521
5636 5635 5633 5631 5627 5623 5618 5613 5607 5602 5600 5600 5597 5593 5590 5585 5581 5577 5572 5568 5563 5558 5554 5550 5544 5538 5531 5528 5519 5518 5520 5518 5514 5523 5528 5527 5525 5524 5521 5519 5517 5515 5512
5628 5626 5624 5622 5619 5615 5611 5606 5600 5597 5596 5594 5590 5586 5583 5580 5576 5572 5567 5562 5557 5552 5549 5544 5539 5532 5527 5522 5516 5509 5505 5503 5499 5496 5512 5516 5511 5513 5512 5510 5508 5506 5503
5620 5618 5616 5614 5611 5607 5602 5598 5593 5589 5587 5584 5581 5578 5576 5572 5568 5564 5559 5555 5550 5546 5541 5537 5531 5525 5520 5516 5510 5504 5497 5493 5493 5487 5491 5501 5502 5504 5500 5500 5498 5496 5493